COSMOS 2251 DEB, 34963

Orbit data source: Space-Track

COSMOS 2251 DEB, 34963 is space debris in LEO originally from a launch on Wed, 16 Jun 1993 UTC launched from the Plesetsk Missile And Space Complex (PKMTR). The debris from Iridium 33, an American commercial communications satellite, has been tracked extensively since its accidental collision with the defunct Russian satellite Cosmos 2251 in 2009. This event, occurring at high speed in low Earth orbit (LEO), generated thousands of pieces of space debris, significantly increasing the risk of further collisions. The Iridium 33 debris cloud has impacted space traffic management and orbital debris mitigation strategies, making it a subject of ongoing study in space situational awareness.

Loading next visibility...
Identifier
34963, 1993-036AES
Orbit
LEO
Country
Flag of CISCIS
Related business
Manufacturer
Unknown
Mission
Spacecraft
Bus & Motor
Unknown
Mass
Unknown
Launch date (UTC)
1993-06-16 (32 years ago)
Launch vehicle
Unknown
Launch site
Plesetsk Missile And Space Complex (PKMTR)
Object type
Payload
Rocket body
Debris
Shape & HBR
Unknown shape, 0.1 m
Radar Cross Section
Small (<0.1 m²)

Expand to show TLE details & history
Last TLE update: 1 week ago

TLE from 1 week ago
0 COSMOS 2251 DEB
1 34963U 93036AES 25295.29707813  .00004872  00000-0  12415-2 0  9992
2 34963  74.1692 138.6622 0040625 346.0943  13.9095 14.50359485860555
Epoch: 2025-10-22T07:07Z
TLE epoch observation values (Epoch: 2025-10-22T07:07:47.550Z)
Latitude
-0.00006°
Longitude
0.74135°
Altitude
699.105 km
Speed
7.521 km/s
True Right ascension
09h 14m 38s
True Declination
0° 00' 00"
Sunlit
Object was in daylight at epoch
Visualization orbit readout
Latitude
Unknown
Longitude
Unknown
Altitude
Unknown
Speed
Unknown
Apparent Right ascension
Unknown
Apparent Declination
Unknown
Sunlit
N/A
Visualization observer readout
Local Sidereal Time
14:50:39
Azimuth
Unknown
Elevation
Unknown
Doppler factor
Unknown
Orbital elements
Apogee altitude
750.916 km
Perigee altitude
693.227 km
Semi-major axis
7,100.208 km
Eccentricity
0.00406
Inclination
74.1692°
RAAN
138.6622°
Arg. of periapsis
346.0943°
True anomaly
14.02196°
Mean anomaly
13.9095°
Eccentric anomaly
13.96568°
Mean motion
3.62774 °/min
Orbital period
99.24 mins
BSTAR
0.0012415

Documentation

Showing up to 5 results
|